ROMMA est une association bénévole à but non lucratif. Votre soutien est indispensable : ADHERER à ROMMA ou FAIRE un DON

Crêts du Salève - (74, Haute-Savoie)

Salève (1270 m)   Longitude: 6° 10' 28'' E   Latitude: 46° 7' 42'' N Station romma n°73
 

Détail journalier du     <<     >>

Température Precipitation Humidité Vent Dir Rafale Dir. rafale Ensol.
Heure (°C) (mm) (%) (km/h) (km/h) (min)
01:00 4.809925SSO47SSO0
02:00 4.809931S48S0
03:00 4.9010030S47S0
04:00 5.3010022SSO40SSO0
05:00 5.6010017SSO34SO0
06:00 5.909819SO35SO0
07:00 6.009723SO37SO0
08:00 5.909821SO31SO0
09:00 5.709915SSO29SO0
10:00 5.80.29913SSO21SSO0
11:00 6.309811SO19SO10
12:00 6.90979SSO16SSO30
13:00 6.90979SSO16SO40
14:00 6.709910SO16SO20
15:00 6.40998SO16SO40
16:00 7.30995S15S20
17:00 6.30988S19S30
18:00 5.909815OSO19SO10
19:00 5.809923OSO31OSO0
20:00 6.109529SO39SO0
21:00 6.309431OSO40OSO0
22:00 6.509322SO32SO0
23:00 6.709213SO23SO0
minuit 6.809115S29S0

Graphique du 31-01-2020

 

Serveur OMMA